QPF
0.11 0.17 0.39 0.62 0.48 0.32 0.21 0.13 0.07 0.03 0.02 0.02 0.01 0.00 0.02 0.07 0.09 0.07 0.18 0.27 0.22 0.14 0.08 0.08 0.08 0.04 0.02 0.01 0.01 0.01 0.01 0.01 0.01 0.01 0.01 0.02 0.02 0.01 0.01 0.01 0.01 0.01 0.01 0.00 0.00 0.00 0.01 0.01 0.01
0.13 0.30 0.52 0.76 0.50 0.26 0.21 0.14 0.05 0.03 0.01 0.01 0.01 0.00 0.01 0.03 0.03 0.08 0.26 0.34 0.22 0.13 0.08 0.05 0.06 0.03 0.02 0.02 0.01 0.01 0.01 0.01 0.01 0.01 0.02 0.02 0.03 0.03 0.02 0.01 0.01 0.01 0.01 0.01 0.01 0.01 0.01 0.01 0.01
0.28 0.56 0.72 0.64 0.38 0.24 0.18 0.09 0.04 0.03 0.01 0.01 0.01 0.00 0.00 0.02 0.03 0.07 0.20 0.25 0.16 0.09 0.05 0.06 0.06 0.03 0.02 0.01 0.01 0.01 0.01 0.01 0.00 0.01 0.01 0.01 0.02 0.03 0.03 0.02 0.02 0.02 0.02 0.02 0.02 0.01 0.01 0.00 0.01
0.34 0.57 0.62 0.41 0.37 0.33 0.18 0.07 0.04 0.03 0.01 0.01 0.00 0.00 0.01 0.04 0.05 0.08 0.12 0.14 0.12 0.09 0.05 0.05 0.05 0.03 0.02 0.02 0.01 0.01 0.01 0.01 0.01 0.01 0.01 0.01 0.02 0.02 0.02 0.02 0.02 0.02 0.02 0.02 0.02 0.02 0.01 0.01 0.00
0.41 0.52 0.39 0.26 0.30 0.21 0.09 0.05 0.03 0.01 0.01 0.00 0.00 0.00 0.02 0.08 0.07 0.07 0.08 0.07 0.08 0.07 0.03 0.02 0.03 0.03 0.02 0.02 0.02 0.01 0.01 0.02 0.02 0.02 0.02 0.01 0.02 0.03 0.03 0.02 0.02 0.02 0.02 0.02 0.02 0.02 0.02 0.01 0.01
0.37 0.37 0.27 0.18 0.16 0.11 0.05 0.05 0.02 0.01 0.01 0.00 0.01 0.02 0.02 0.06 0.05 0.03 0.04 0.04 0.04 0.03 0.02 0.01 0.02 0.02 0.03 0.03 0.03 0.03 0.03 0.03 0.03 0.03 0.04 0.04 0.03 0.03 0.04 0.03 0.02 0.02 0.02 0.01 0.01 0.01 0.01 0.01 0.01
0.31 0.27 0.21 0.14 0.09 0.08 0.04 0.03 0.02 0.01 0.01 0.00 0.00 0.01 0.01 0.04 0.03 0.01 0.01 0.01 0.01 0.01 0.01 0.01 0.01 0.01 0.02 0.03 0.03 0.03 0.03 0.03 0.04 0.05 0.06 0.05 0.05 0.05 0.04 0.04 0.03 0.04 0.03 0.02 0.02 0.02 0.01 0.01 0.00
0.27 0.25 0.15 0.12 0.11 0.10 0.05 0.03 0.01 0.00 0.01 0.00 0.00 0.01 0.01 0.01 0.01 0.01 0.00 0.00 0.00 0.00 0.00 0.00 0.01 0.01 0.01 0.01 0.02 0.02 0.03 0.03 0.04 0.06 0.07 0.05 0.05 0.06 0.07 0.07 0.06 0.06 0.06 0.06 0.04 0.02 0.02 0.01 0.01
0.27 0.24 0.11 0.11 0.11 0.10 0.06 0.03 0.01 0.00 0.00 0.00 0.00 0.00 0.00 0.00 0.00 0.00 0.00 0.00 0.00 0.00 0.00 0.00 0.00 0.00 0.00 0.00 0.01 0.01 0.02 0.03 0.04 0.06 0.07 0.07 0.04 0.04 0.05 0.07 0.10 0.10 0.09 0.09 0.07 0.05 0.03 0.02 0.02
0.30 0.24 0.12 0.07 0.06 0.06 0.03 0.01 0.01 0.00 0.00 0.00 0.00 0.00 0.00 0.00 0.00 0.00 0.00 0.00 0.00 0.00 0.00 0.00 0.00 0.00 0.00 0.00 0.00 0.00 0.00 0.01 0.01 0.01 0.02 0.03 0.03 0.03 0.04 0.05 0.08 0.11 0.11 0.10 0.09 0.08 0.05 0.02 0.01
0.35 0.29 0.22 0.12 0.04 0.03 0.02 0.01 0.00 0.01 0.01 0.01 0.00 0.00 0.00 0.00 0.00 0.00 0.00 0.00 0.00 0.00 0.00 0.00 0.00 0.00 0.00 0.00 0.00 0.00 0.00 0.00 0.00 0.01 0.00 0.01 0.03 0.05 0.05 0.04 0.06 0.09 0.11 0.08 0.07 0.08 0.06 0.04 0.03
0.37 0.33 0.27 0.14 0.04 0.02 0.02 0.01 0.01 0.00 0.00 0.00 0.00 0.00 0.00 0.00 0.00 0.00 0.00 0.00 0.00 0.00 0.00 0.00 0.00 0.00 0.00 0.00 0.00 0.00 0.00 0.00 0.00 0.01 0.01 0.02 0.04 0.05 0.06 0.04 0.04 0.07 0.09 0.09 0.08 0.08 0.06 0.05 0.04
0.42 0.45 0.31 0.13 0.05 0.04 0.02 0.02 0.01 0.01 0.00 0.00 0.00 0.00 0.00 0.00 0.00 0.00 0.00 0.00 0.00 0.00 0.00 0.00 0.00 0.00 0.00 0.00 0.00 0.00 0.00 0.00 0.00 0.01 0.01 0.02 0.03 0.04 0.04 0.04 0.04 0.05 0.06 0.08 0.11 0.09 0.07 0.06 0.06
0.39 0.37 0.19 0.08 0.08 0.06 0.03 0.02 0.01 0.00 0.00 0.00 0.00 0.00 0.00 0.00 0.00 0.00 0.00 0.00 0.00 0.00 0.00 0.00 0.00 0.00 0.00 0.00 0.00 0.00 0.00 0.00 0.00 0.00 0.01 0.01 0.02 0.03 0.04 0.04 0.04 0.04 0.06 0.06 0.07 0.08 0.07 0.08 0.08
0.24 0.20 0.16 0.13 0.12 0.09 0.04 0.02 0.01 0.00 0.00 0.00 0.00 0.00 0.00 0.00 0.00 0.00 0.00 0.00 0.00 0.00 0.00 0.00 0.00 0.00 0.00 0.00 0.00 0.00 0.00 0.00 0.00 0.00 0.00 0.01 0.01 0.01 0.03 0.03 0.05 0.06 0.05 0.05 0.07 0.08 0.08 0.08 0.10
0.21 0.18 0.20 0.20 0.15 0.08 0.03 0.01 0.01 0.01 0.00 0.00 0.00 0.00 0.00 0.00 0.00 0.00 0.00 0.00 0.00 0.00 0.00 0.00 0.00 0.00 0.00 0.00 0.00 0.00 0.01 0.00 0.00 0.01 0.01 0.01 0.01 0.01 0.02 0.03 0.03 0.05 0.07 0.06 0.06 0.08 0.09 0.11 0.13
0.17 0.16 0.15 0.15 0.13 0.07 0.03 0.01 0.00 0.00 0.00 0.00 0.00 0.00 0.00 0.00 0.00 0.00 0.00 0.00 0.00 0.00 0.00 0.00 0.00 0.00 0.00 0.00 0.00 0.00 0.00 0.00 0.01 0.00 0.01 0.02 0.02 0.01 0.01 0.02 0.02 0.03 0.05 0.05 0.05 0.07 0.08 0.08 0.09
0.16 0.10 0.07 0.07 0.04 0.04 0.02 0.00 0.00 0.00 0.00 0.00 0.00 0.00 0.00 0.00 0.00 0.00 0.00 0.00 0.00 0.00 0.00 0.00 0.00 0.00 0.00 0.00 0.00 0.00 0.00 0.00 0.01 0.01 0.01 0.02 0.02 0.01 0.01 0.01 0.02 0.02 0.03 0.04 0.05 0.06 0.07 0.07 0.11
0.11 0.05 0.03 0.02 0.02 0.02 0.01 0.00 0.00 0.00 0.00 0.00 0.00 0.00 0.00 0.00 0.00 0.00 0.00 0.00 0.00 0.00 0.00 0.00 0.00 0.00 0.00 0.00 0.00 0.00 0.00 0.00 0.01 0.01 0.01 0.02 0.03 0.02 0.01 0.01 0.01 0.01 0.02 0.03 0.03 0.05 0.06 0.08 0.10
0.08 0.04 0.02 0.01 0.01 0.01 0.00 0.00 0.00 0.00 0.00 0.00 0.00 0.00 0.00 0.00 0.00 0.00 0.00 0.00 0.00 0.00 0.00 0.00 0.00 0.00 0.00 0.00 0.00 0.00 0.00 0.00 0.01 0.02 0.01 0.01 0.02 0.02 0.01 0.01 0.00 0.00 0.01 0.01 0.02 0.03 0.04 0.07 0.09
0.03 0.04 0.03 0.01 0.00 0.00 0.00 0.00 0.00 0.00 0.00 0.00 0.00 0.00 0.00 0.00 0.00 0.00 0.00 0.00 0.00 0.00 0.00 0.00 0.00 0.00 0.00 0.00 0.00 0.01 0.00 0.00 0.01 0.01 0.00 0.00 0.01 0.01 0.01 0.01 0.00 0.00 0.01 0.01 0.01 0.02 0.03 0.04 0.07
0.02 0.01 0.01 0.00 0.00 0.00 0.00 0.00 0.00 0.00 0.00 0.00 0.00 0.00 0.00 0.00 0.00 0.00 0.00 0.00 0.00 0.00 0.00 0.00 0.00 0.00 0.00 0.00 0.00 0.01 0.01 0.00 0.00 0.00 0.00 0.00 0.00 0.00 0.00 0.00 0.00 0.00 0.00 0.01 0.01 0.02 0.02 0.03 0.05
0.01 0.00 0.00 0.00 0.00 0.00 0.00 0.00 0.00 0.00 0.00 0.00 0.00 0.00 0.00 0.00 0.00 0.00 0.00 0.00 0.00 0.00 0.00 0.00 0.00 0.00 0.00 0.00 0.00 0.00 0.00 0.00 0.00 0.00 0.00 0.00 0.00 0.00 0.00 0.00 0.00 0.00 0.00 0.00 0.01 0.01 0.02 0.02 0.03
0.00 0.00 0.00 0.00 0.00 0.00 0.00 0.00 0.00 0.00 0.00 0.00 0.00 0.00 0.00 0.00 0.00 0.00 0.00 0.00 0.00 0.00 0.00 0.00 0.00 0.00 0.00 0.00 0.00 0.00 0.00 0.00 0.00 0.00 0.00 0.00 0.00 0.00 0.00 0.00 0.00 0.00 0.00 0.00 0.00 0.00 0.01 0.02 0.02
0.00 0.00 0.00 0.00 0.00 0.00 0.00 0.00 0.00 0.00 0.00 0.00 0.00 0.00 0.00 0.00 0.00 0.00 0.00 0.00 0.00 0.00 0.00 0.00 0.00 0.00 0.00 0.00 0.00 0.00 0.00 0.00 0.00 0.00 0.00 0.00 0.00 0.00 0.00 0.00 0.00 0.00 0.00 0.00 0.00 0.00 0.00 0.00 0.01
0.00 0.00 0.00 0.00 0.00 0.00 0.00 0.00 0.00 0.00 0.00 0.00 0.00 0.00 0.00 0.00 0.00 0.00 0.00 0.00 0.00 0.00 0.00 0.00 0.00 0.00 0.00 0.00 0.00 0.00 0.00 0.00 0.00 0.00 0.00 0.00 0.00 0.00 0.00 0.00 0.00 0.00 0.00 0.00 0.00 0.00 0.00 0.00 0.01
0.00 0.00 0.00 0.00 0.00 0.00 0.00 0.00 0.00 0.00 0.00 0.00 0.00 0.00 0.00 0.00 0.00 0.00 0.00 0.00 0.00 0.00 0.00 0.00 0.00 0.00 0.00 0.00 0.00 0.00 0.00 0.00 0.00 0.00 0.00 0.00 0.00 0.00 0.00 0.00 0.00 0.01 0.01 0.01 0.00 0.01 0.00 0.00 0.01
0.00 0.00 0.00 0.00 0.00 0.00 0.00 0.00 0.00 0.00 0.00 0.00 0.00 0.00 0.00 0.00 0.00 0.00 0.00 0.00 0.00 0.00 0.00 0.00 0.00 0.00 0.00 0.00 0.00 0.00 0.00 0.00 0.00 0.00 0.00 0.00 0.00 0.00 0.00 0.00 0.00 0.00 0.00 0.00 0.01 0.01 0.00 0.01 0.01
0.00 0.00 0.00 0.00 0.00 0.00 0.00 0.00 0.00 0.00 0.00 0.00 0.00 0.00 0.00 0.00 0.00 0.00 0.00 0.00 0.00 0.00 0.00 0.00 0.00 0.00 0.00 0.00 0.00 0.00 0.00 0.00 0.00 0.00 0.00 0.00 0.00 0.00 0.00 0.00 0.00 0.00 0.00 0.00 0.00 0.00 0.00 0.01 0.01
0.00 0.00 0.00 0.00 0.00 0.00 0.00 0.00 0.00 0.00 0.00 0.00 0.00 0.00 0.00 0.00 0.00 0.00 0.00 0.00 0.00 0.00 0.00 0.00 0.00 0.00 0.00 0.00 0.00 0.00 0.00 0.00 0.00 0.00 0.00 0.00 0.00 0.00 0.00 0.00 0.00 0.00 0.00 0.00 0.00 0.01 0.01 0.01 0.01
MSLP
1012.54 1013.74 1015.03 1016.20 1017.10 1017.58 1017.62 1017.28 1016.68 1016.01 1015.44 1015.10 1015.05 1015.25 1015.62 1016.01 1016.28 1016.32 1016.12 1015.70 1015.14 1014.56 1014.07 1013.74 1013.60 1013.62 1013.74 1013.89 1014.01 1014.05 1014.03 1013.96 1013.90 1013.88 1013.94 1014.06 1014.25 1014.45 1014.63 1014.76 1014.81 1014.80 1014.73 1014.65 1014.56 1014.50 1014.45 1014.42 1014.38
1012.86 1014.19 1015.52 1016.66 1017.45 1017.78 1017.66 1017.16 1016.45 1015.70 1015.11 1014.79 1014.77 1015.02 1015.41 1015.81 1016.07 1016.11 1015.90 1015.48 1014.94 1014.39 1013.94 1013.65 1013.55 1013.60 1013.74 1013.90 1014.02 1014.06 1014.03 1013.96 1013.90 1013.87 1013.90 1014.01 1014.15 1014.31 1014.44 1014.53 1014.55 1014.53 1014.48 1014.42 1014.37 1014.33 1014.32 1014.31 1014.29
1013.23 1014.62 1015.95 1017.02 1017.68 1017.86 1017.59 1016.97 1016.18 1015.41 1014.84 1014.56 1014.58 1014.86 1015.27 1015.66 1015.91 1015.92 1015.70 1015.28 1014.77 1014.26 1013.87 1013.64 1013.59 1013.67 1013.82 1013.98 1014.08 1014.10 1014.05 1013.96 1013.87 1013.81 1013.81 1013.87 1013.97 1014.07 1014.15 1014.20 1014.21 1014.18 1014.15 1014.13 1014.12 1014.14 1014.17 1014.20 1014.21
1013.63 1015.04 1016.32 1017.27 1017.79 1017.82 1017.42 1016.73 1015.92 1015.18 1014.66 1014.44 1014.52 1014.83 1015.24 1015.61 1015.82 1015.80 1015.55 1015.15 1014.67 1014.23 1013.90 1013.74 1013.73 1013.84 1013.99 1014.12 1014.18 1014.16 1014.06 1013.93 1013.80 1013.70 1013.66 1013.68 1013.72 1013.78 1013.82 1013.84 1013.83 1013.82 1013.82 1013.85 1013.90 1013.97 1014.06 1014.12 1014.16
1014.06 1015.44 1016.61 1017.42 1017.77 1017.67 1017.19 1016.46 1015.67 1015.00 1014.58 1014.45 1014.60 1014.93 1015.33 1015.66 1015.81 1015.75 1015.50 1015.10 1014.67 1014.30 1014.05 1013.95 1013.98 1014.10 1014.22 1014.31 1014.31 1014.22 1014.06 1013.87 1013.69 1013.56 1013.48 1013.45 1013.46 1013.48 1013.49 1013.50 1013.50 1013.50 1013.54 1013.62 1013.73 1013.86 1013.99 1014.10 1014.16
1014.51 1015.80 1016.82 1017.45 1017.65 1017.42 1016.88 1016.16 1015.45 1014.89 1014.58 1014.56 1014.77 1015.13 1015.51 1015.79 1015.89 1015.79 1015.52 1015.15 1014.77 1014.46 1014.28 1014.24 1014.30 1014.41 1014.50 1014.53 1014.45 1014.29 1014.06 1013.81 1013.58 1013.41 1013.30 1013.25 1013.24 1013.23 1013.23 1013.23 1013.24 1013.27 1013.34 1013.46 1013.62 1013.80 1013.97 1014.10 1014.19
1014.98 1016.12 1016.96 1017.40 1017.43 1017.10 1016.52 1015.84 1015.22 1014.80 1014.63 1014.71 1015.00 1015.38 1015.73 1015.97 1016.02 1015.88 1015.60 1015.26 1014.93 1014.69 1014.58 1014.58 1014.65 1014.74 1014.79 1014.74 1014.59 1014.35 1014.06 1013.76 1013.50 1013.31 1013.19 1013.13 1013.10 1013.09 1013.07 1013.06 1013.07 1013.11 1013.20 1013.35 1013.54 1013.75 1013.94 1014.10 1014.19
1015.44 1016.42 1017.06 1017.30 1017.17 1016.73 1016.13 1015.51 1015.00 1014.71 1014.67 1014.86 1015.21 1015.60 1015.93 1016.13 1016.14 1015.97 1015.70 1015.38 1015.11 1014.93 1014.87 1014.90 1014.98 1015.05 1015.04 1014.93 1014.71 1014.41 1014.07 1013.75 1013.48 1013.29 1013.17 1013.11 1013.08 1013.05 1013.02 1012.99 1012.98 1013.01 1013.10 1013.25 1013.44 1013.66 1013.87 1014.04 1014.14
1015.89 1016.70 1017.13 1017.18 1016.89 1016.38 1015.76 1015.19 1014.78 1014.61 1014.69 1014.96 1015.35 1015.75 1016.06 1016.22 1016.20 1016.03 1015.76 1015.49 1015.26 1015.14 1015.11 1015.17 1015.24 1015.27 1015.22 1015.06 1014.79 1014.46 1014.11 1013.78 1013.53 1013.35 1013.25 1013.19 1013.15 1013.11 1013.05 1012.98 1012.94 1012.93 1012.98 1013.11 1013.30 1013.52 1013.73 1013.90 1014.01
1016.29 1016.95 1017.20 1017.08 1016.67 1016.09 1015.47 1014.95 1014.62 1014.54 1014.69 1015.02 1015.42 1015.81 1016.10 1016.23 1016.19 1016.02 1015.78 1015.54 1015.36 1015.28 1015.28 1015.34 1015.40 1015.40 1015.31 1015.12 1014.83 1014.49 1014.15 1013.85 1013.63 1013.48 1013.40 1013.35 1013.30 1013.22 1013.12 1013.00 1012.90 1012.83 1012.84 1012.93 1013.09 1013.29 1013.50 1013.69 1013.81
1016.64 1017.16 1017.28 1017.03 1016.54 1015.91 1015.30 1014.81 1014.54 1014.51 1014.70 1015.04 1015.43 1015.79 1016.04 1016.15 1016.10 1015.94 1015.73 1015.53 1015.39 1015.33 1015.35 1015.40 1015.44 1015.42 1015.31 1015.10 1014.82 1014.50 1014.19 1013.93 1013.75 1013.63 1013.57 1013.53 1013.46 1013.35 1013.20 1013.02 1012.85 1012.72 1012.67 1012.70 1012.83 1013.02 1013.23 1013.42 1013.57
1016.90 1017.34 1017.36 1017.05 1016.52 1015.88 1015.29 1014.83 1014.58 1014.57 1014.75 1015.06 1015.41 1015.72 1015.93 1016.01 1015.96 1015.81 1015.63 1015.47 1015.36 1015.32 1015.33 1015.37 1015.39 1015.35 1015.22 1015.02 1014.75 1014.47 1014.20 1013.99 1013.85 1013.78 1013.73 1013.68 1013.60 1013.46 1013.26 1013.02 1012.79 1012.60 1012.49 1012.48 1012.57 1012.74 1012.95 1013.16 1013.33
1017.06 1017.45 1017.44 1017.12 1016.59 1015.99 1015.43 1015.00 1014.76 1014.73 1014.86 1015.11 1015.39 1015.64 1015.80 1015.86 1015.80 1015.68 1015.53 1015.39 1015.30 1015.26 1015.26 1015.28 1015.27 1015.21 1015.08 1014.89 1014.66 1014.41 1014.20 1014.03 1013.93 1013.87 1013.83 1013.77 1013.67 1013.51 1013.28 1013.01 1012.74 1012.51 1012.36 1012.31 1012.37 1012.52 1012.72 1012.94 1013.12
1017.10 1017.47 1017.48 1017.20 1016.73 1016.19 1015.69 1015.29 1015.05 1014.98 1015.05 1015.21 1015.40 1015.58 1015.69 1015.72 1015.68 1015.57 1015.45 1015.33 1015.25 1015.20 1015.18 1015.17 1015.13 1015.06 1014.94 1014.76 1014.56 1014.36 1014.18 1014.04 1013.96 1013.90 1013.86 1013.79 1013.68 1013.51 1013.27 1013.00 1012.72 1012.48 1012.32 1012.25 1012.28 1012.40 1012.59 1012.80 1012.99
1017.02 1017.39 1017.44 1017.23 1016.86 1016.42 1015.99 1015.63 1015.39 1015.27 1015.26 1015.33 1015.44 1015.54 1015.61 1015.63 1015.59 1015.51 1015.42 1015.31 1015.23 1015.16 1015.12 1015.08 1015.02 1014.94 1014.83 1014.68 1014.51 1014.34 1014.19 1014.07 1013.97 1013.90 1013.84 1013.76 1013.64 1013.47 1013.26 1013.01 1012.77 1012.55 1012.39 1012.31 1012.33 1012.42 1012.57 1012.75 1012.92
1016.83 1017.20 1017.29 1017.18 1016.93 1016.60 1016.26 1015.95 1015.70 1015.54 1015.46 1015.44 1015.47 1015.51 1015.55 1015.57 1015.56 1015.51 1015.43 1015.35 1015.26 1015.18 1015.10 1015.04 1014.97 1014.89 1014.79 1014.67 1014.54 1014.40 1014.26 1014.13 1014.02 1013.91 1013.81 1013.71 1013.58 1013.43 1013.26 1013.07 1012.87 1012.70 1012.57 1012.50 1012.49 1012.55 1012.65 1012.78 1012.90
1016.53 1016.88 1017.03 1017.02 1016.89 1016.69 1016.43 1016.17 1015.93 1015.73 1015.58 1015.49 1015.45 1015.46 1015.49 1015.52 1015.54 1015.53 1015.49 1015.42 1015.33 1015.23 1015.13 1015.05 1014.97 1014.91 1014.84 1014.76 1014.67 1014.55 1014.42 1014.28 1014.12 1013.97 1013.83 1013.69 1013.56 1013.42 1013.30 1013.17 1013.04 1012.93 1012.84 1012.78 1012.75 1012.76 1012.80 1012.86 1012.92
1016.14 1016.47 1016.67 1016.76 1016.75 1016.66 1016.50 1016.28 1016.04 1015.80 1015.59 1015.44 1015.36 1015.34 1015.38 1015.45 1015.52 1015.56 1015.56 1015.51 1015.42 1015.30 1015.19 1015.10 1015.02 1014.98 1014.95 1014.93 1014.88 1014.80 1014.68 1014.51 1014.32 1014.11 1013.91 1013.74 1013.58 1013.46 1013.37 1013.30 1013.25 1013.19 1013.14 1013.08 1013.03 1012.99 1012.97 1012.95 1012.94
1015.70 1016.01 1016.26 1016.45 1016.56 1016.57 1016.48 1016.30 1016.05 1015.76 1015.50 1015.29 1015.18 1015.15 1015.22 1015.33 1015.46 1015.56 1015.60 1015.57 1015.49 1015.37 1015.24 1015.14 1015.08 1015.07 1015.10 1015.13 1015.14 1015.10 1015.00 1014.83 1014.60 1014.34 1014.09 1013.86 1013.68 1013.56 1013.49 1013.46 1013.46 1013.45 1013.42 1013.37 1013.30 1013.22 1013.13 1013.05 1012.98
1015.25 1015.57 1015.89 1016.18 1016.39 1016.50 1016.46 1016.29 1016.01 1015.67 1015.33 1015.07 1014.92 1014.89 1014.98 1015.14 1015.34 1015.50 1015.58 1015.59 1015.51 1015.39 1015.25 1015.15 1015.11 1015.13 1015.21 1015.31 1015.39 1015.41 1015.34 1015.18 1014.94 1014.64 1014.33 1014.06 1013.84 1013.69 1013.63 1013.62 1013.64 1013.65 1013.65 1013.60 1013.51 1013.39 1013.25 1013.12 1013.00
1014.85 1015.22 1015.63 1016.03 1016.35 1016.53 1016.53 1016.34 1016.00 1015.58 1015.16 1014.82 1014.62 1014.58 1014.69 1014.90 1015.15 1015.37 1015.50 1015.54 1015.47 1015.34 1015.19 1015.09 1015.06 1015.11 1015.24 1015.40 1015.56 1015.65 1015.63 1015.50 1015.26 1014.95 1014.61 1014.29 1014.03 1013.86 1013.77 1013.75 1013.77 1013.79 1013.79 1013.74 1013.63 1013.49 1013.33 1013.17 1013.03
1014.56 1015.03 1015.57 1016.10 1016.52 1016.75 1016.75 1016.52 1016.10 1015.56 1015.03 1014.59 1014.32 1014.25 1014.36 1014.60 1014.91 1015.18 1015.36 1015.42 1015.36 1015.23 1015.07 1014.94 1014.91 1014.98 1015.15 1015.37 1015.59 1015.75 1015.81 1015.73 1015.52 1015.22 1014.87 1014.52 1014.22 1014.01 1013.89 1013.85 1013.85 1013.86 1013.85 1013.79 1013.68 1013.53 1013.36 1013.19 1013.06
1014.42 1015.04 1015.73 1016.39 1016.91 1017.18 1017.17 1016.86 1016.33 1015.65 1014.98 1014.42 1014.06 1013.93 1014.03 1014.29 1014.63 1014.95 1015.17 1015.26 1015.21 1015.06 1014.89 1014.74 1014.69 1014.76 1014.94 1015.20 1015.48 1015.71 1015.83 1015.82 1015.66 1015.39 1015.05 1014.70 1014.38 1014.14 1013.98 1013.90 1013.88 1013.86 1013.84 1013.77 1013.66 1013.52 1013.35 1013.19 1013.06
1014.46 1015.25 1016.10 1016.89 1017.49 1017.79 1017.73 1017.33 1016.66 1015.84 1015.01 1014.31 1013.85 1013.65 1013.72 1013.98 1014.34 1014.70 1014.96 1015.07 1015.04 1014.89 1014.69 1014.51 1014.43 1014.48 1014.65 1014.92 1015.23 1015.51 1015.70 1015.75 1015.66 1015.44 1015.14 1014.80 1014.48 1014.22 1014.04 1013.93 1013.86 1013.83 1013.78 1013.71 1013.60 1013.46 1013.31 1013.16 1013.03
1014.65 1015.61 1016.61 1017.51 1018.16 1018.45 1018.34 1017.84 1017.03 1016.05 1015.08 1014.24 1013.67 1013.40 1013.43 1013.68 1014.06 1014.45 1014.74 1014.89 1014.87 1014.72 1014.51 1014.30 1014.18 1014.18 1014.33 1014.58 1014.89 1015.20 1015.43 1015.54 1015.51 1015.36 1015.11 1014.81 1014.51 1014.25 1014.05 1013.92 1013.83 1013.77 1013.71 1013.63 1013.52 1013.38 1013.23 1013.09 1012.96
1014.96 1016.05 1017.16 1018.12 1018.78 1019.05 1018.86 1018.25 1017.32 1016.21 1015.11 1014.17 1013.50 1013.16 1013.15 1013.39 1013.78 1014.20 1014.53 1014.71 1014.72 1014.59 1014.37 1014.14 1013.98 1013.94 1014.03 1014.25 1014.53 1014.83 1015.08 1015.23 1015.26 1015.17 1014.98 1014.73 1014.46 1014.22 1014.02 1013.88 1013.78 1013.70 1013.62 1013.53 1013.42 1013.28 1013.13 1012.98 1012.83
1015.30 1016.47 1017.61 1018.57 1019.21 1019.41 1019.15 1018.45 1017.43 1016.23 1015.04 1014.03 1013.30 1012.92 1012.88 1013.11 1013.51 1013.95 1014.32 1014.54 1014.60 1014.49 1014.29 1014.05 1013.86 1013.78 1013.81 1013.97 1014.21 1014.47 1014.71 1014.88 1014.94 1014.90 1014.76 1014.57 1014.35 1014.14 1013.96 1013.82 1013.71 1013.62 1013.53 1013.43 1013.31 1013.16 1013.00 1012.82 1012.65
1015.61 1016.76 1017.86 1018.76 1019.31 1019.43 1019.10 1018.34 1017.27 1016.04 1014.83 1013.80 1013.06 1012.66 1012.61 1012.84 1013.24 1013.69 1014.10 1014.36 1014.46 1014.40 1014.23 1014.01 1013.82 1013.70 1013.68 1013.78 1013.95 1014.17 1014.38 1014.53 1014.60 1014.59 1014.50 1014.35 1014.18 1014.01 1013.85 1013.72 1013.62 1013.52 1013.43 1013.32 1013.18 1013.02 1012.84 1012.64 1012.43
1015.78 1016.83 1017.81 1018.58 1019.02 1019.05 1018.65 1017.87 1016.82 1015.62 1014.46 1013.47 1012.76 1012.39 1012.34 1012.56 1012.96 1013.42 1013.84 1014.14 1014.28 1014.28 1014.16 1013.98 1013.79 1013.67 1013.62 1013.66 1013.78 1013.94 1014.09 1014.22 1014.28 1014.28 1014.22 1014.11 1013.98 1013.84 1013.71 1013.60 1013.50 1013.41 1013.31 1013.18 1013.04 1012.86 1012.65 1012.43 1012.19
1015.77 1016.66 1017.45 1018.04 1018.33 1018.27 1017.83 1017.08 1016.09 1015.00 1013.95 1013.07 1012.44 1012.12 1012.08 1012.30 1012.67 1013.11 1013.52 1013.83 1014.02 1014.06 1014.00 1013.88 1013.74 1013.63 1013.57 1013.59 1013.66 1013.76 1013.86 1013.95 1013.99 1013.99 1013.94 1013.85 1013.75 1013.65 1013.54 1013.45 1013.36 1013.26 1013.16 1013.02 1012.86 1012.67 1012.45 1012.21 1011.95
Thickness
5809 5804 5797 5781 5761 5747 5747 5760 5772 5778 5781 5786 5788 5782 5770 5762 5755 5747 5769 5778 5776 5773 5772 5771 5770 5769 5767 5766 5766 5765 5765 5765 5764 5763 5763 5762 5762 5762 5762 5761 5761 5761 5761 5761 5761 5761 5762 5762 5763
5808 5802 5787 5769 5748 5735 5745 5764 5771 5781 5787 5790 5786 5779 5769 5764 5768 5767 5770 5774 5774 5772 5770 5768 5768 5766 5765 5764 5763 5763 5762 5762 5762 5761 5761 5761 5760 5760 5760 5760 5760 5760 5760 5760 5759 5759 5760 5760 5761
5807 5800 5778 5759 5746 5741 5750 5768 5775 5787 5794 5789 5776 5772 5765 5761 5767 5767 5770 5772 5770 5768 5766 5765 5764 5762 5761 5760 5760 5759 5759 5758 5758 5758 5759 5759 5758 5758 5758 5758 5759 5759 5759 5759 5758 5758 5758 5758 5759
5804 5786 5772 5755 5747 5757 5765 5774 5781 5783 5786 5785 5774 5762 5762 5768 5768 5768 5770 5769 5766 5763 5761 5760 5759 5758 5756 5756 5755 5755 5754 5754 5754 5755 5755 5755 5756 5756 5756 5756 5757 5757 5757 5757 5757 5757 5757 5757 5757
5799 5778 5758 5748 5751 5764 5774 5781 5784 5779 5777 5774 5769 5755 5753 5765 5768 5767 5765 5764 5760 5758 5756 5754 5753 5752 5751 5750 5749 5749 5749 5749 5749 5750 5750 5751 5752 5752 5753 5753 5754 5755 5755 5756 5756 5756 5756 5756 5756
5784 5772 5749 5741 5751 5765 5774 5782 5780 5774 5771 5770 5764 5752 5750 5762 5762 5762 5761 5758 5756 5752 5750 5748 5747 5745 5744 5743 5743 5743 5743 5743 5744 5745 5745 5746 5747 5748 5749 5750 5751 5753 5753 5754 5754 5755 5755 5755 5755
5777 5764 5752 5750 5751 5758 5771 5781 5775 5769 5766 5767 5766 5747 5747 5755 5758 5759 5756 5753 5750 5747 5744 5741 5739 5738 5737 5736 5736 5736 5736 5737 5737 5738 5739 5740 5741 5743 5744 5746 5748 5749 5751 5752 5753 5753 5754 5754 5754
5783 5763 5752 5750 5751 5756 5774 5780 5778 5772 5765 5773 5767 5746 5741 5751 5756 5753 5748 5745 5742 5739 5737 5734 5732 5730 5729 5728 5728 5728 5729 5729 5730 5731 5732 5734 5735 5737 5739 5741 5744 5746 5748 5749 5750 5751 5752 5753 5753
5783 5753 5742 5749 5752 5759 5775 5774 5775 5776 5768 5764 5763 5757 5755 5756 5751 5744 5739 5735 5733 5731 5730 5728 5726 5724 5723 5722 5721 5721 5721 5722 5723 5724 5726 5728 5729 5731 5734 5736 5739 5741 5744 5746 5747 5749 5750 5751 5752
5768 5743 5747 5761 5765 5765 5771 5771 5769 5761 5753 5750 5751 5754 5756 5750 5743 5736 5730 5726 5725 5724 5723 5722 5720 5718 5717 5716 5715 5714 5714 5715 5716 5717 5719 5721 5723 5725 5728 5730 5733 5736 5739 5741 5744 5746 5748 5749 5750
5761 5747 5753 5763 5771 5770 5768 5768 5770 5753 5742 5745 5744 5745 5746 5742 5736 5731 5726 5724 5722 5720 5719 5718 5716 5714 5712 5710 5709 5708 5708 5708 5709 5710 5711 5713 5716 5718 5721 5724 5727 5730 5733 5736 5739 5741 5744 5745 5747
5756 5754 5757 5761 5771 5768 5766 5765 5760 5755 5751 5755 5752 5748 5743 5737 5731 5727 5723 5721 5719 5716 5715 5714 5712 5710 5707 5705 5703 5702 5702 5701 5702 5703 5705 5706 5709 5711 5715 5718 5721 5724 5727 5730 5733 5735 5739 5741 5743
5752 5749 5756 5764 5766 5766 5767 5761 5755 5752 5756 5756 5752 5746 5740 5735 5730 5727 5724 5720 5717 5713 5711 5710 5708 5705 5703 5700 5698 5698 5696 5696 5696 5697 5699 5700 5702 5705 5708 5711 5715 5719 5722 5725 5728 5730 5733 5736 5739
5753 5751 5752 5757 5760 5762 5758 5755 5753 5749 5755 5752 5747 5741 5739 5734 5730 5724 5720 5716 5714 5711 5709 5707 5704 5702 5699 5696 5694 5692 5691 5691 5691 5692 5693 5695 5697 5699 5702 5705 5709 5712 5717 5720 5723 5725 5728 5732 5735
5753 5744 5745 5751 5754 5757 5755 5744 5749 5754 5753 5747 5743 5740 5737 5733 5729 5724 5720 5716 5713 5710 5708 5705 5702 5699 5695 5692 5690 5688 5687 5686 5686 5687 5688 5690 5692 5694 5697 5699 5703 5707 5711 5715 5717 5720 5723 5726 5730
5742 5733 5728 5742 5750 5755 5745 5729 5749 5753 5748 5741 5738 5735 5732 5729 5727 5724 5721 5716 5713 5709 5706 5703 5700 5695 5692 5689 5686 5685 5683 5682 5682 5682 5684 5685 5687 5690 5692 5694 5697 5702 5706 5709 5711 5714 5717 5720 5724
5728 5722 5724 5735 5748 5748 5739 5732 5747 5750 5746 5737 5734 5732 5729 5725 5724 5722 5720 5716 5713 5709 5705 5700 5696 5692 5689 5686 5684 5682 5680 5679 5678 5679 5680 5681 5683 5685 5688 5690 5693 5696 5700 5702 5706 5709 5712 5714 5717
5720 5722 5726 5731 5745 5743 5735 5735 5742 5745 5743 5736 5733 5730 5726 5723 5722 5722 5719 5716 5713 5709 5704 5700 5695 5691 5688 5685 5682 5679 5678 5676 5676 5676 5676 5678 5679 5681 5684 5685 5688 5691 5694 5696 5699 5702 5706 5709 5712
5738 5731 5728 5737 5751 5742 5734 5734 5737 5741 5739 5734 5730 5728 5725 5724 5723 5722 5719 5716 5712 5707 5703 5698 5693 5689 5686 5682 5678 5675 5673 5673 5673 5673 5674 5675 5676 5677 5679 5681 5683 5686 5688 5690 5693 5696 5699 5702 5706
5739 5730 5728 5739 5751 5742 5733 5734 5739 5740 5739 5737 5733 5729 5726 5723 5721 5719 5717 5714 5710 5706 5703 5698 5694 5690 5687 5683 5679 5676 5673 5672 5671 5671 5672 5672 5673 5674 5676 5676 5678 5680 5682 5685 5688 5690 5692 5695 5699
5734 5731 5731 5733 5742 5742 5733 5723 5730 5738 5741 5738 5736 5734 5731 5727 5722 5719 5716 5713 5710 5707 5704 5701 5696 5692 5688 5685 5681 5677 5674 5671 5670 5669 5669 5670 5671 5671 5672 5673 5674 5676 5678 5679 5682 5685 5686 5687 5691
5729 5744 5743 5737 5722 5712 5724 5699 5718 5728 5730 5732 5732 5731 5730 5729 5725 5721 5718 5714 5711 5709 5707 5703 5698 5694 5690 5687 5682 5677 5671 5668 5667 5667 5667 5669 5669 5670 5670 5671 5671 5672 5673 5675 5677 5680 5681 5682 5683
5738 5751 5744 5736 5721 5710 5713 5701 5707 5724 5721 5727 5731 5732 5732 5731 5727 5724 5721 5718 5716 5713 5709 5705 5700 5696 5692 5689 5684 5679 5674 5671 5669 5669 5668 5668 5668 5668 5668 5669 5669 5669 5670 5671 5673 5675 5676 5677 5678
5750 5739 5727 5712 5703 5691 5708 5700 5704 5714 5725 5730 5733 5734 5733 5731 5729 5726 5724 5721 5718 5715 5711 5706 5702 5697 5694 5690 5686 5681 5677 5673 5671 5669 5667 5666 5666 5666 5667 5667 5667 5667 5667 5668 5669 5670 5671 5673 5674
5735 5709 5688 5688 5676 5685 5710 5706 5709 5731 5739 5739 5736 5734 5734 5732 5729 5726 5724 5721 5718 5715 5711 5708 5703 5699 5696 5692 5688 5684 5680 5676 5673 5670 5667 5666 5664 5664 5664 5665 5665 5664 5665 5665 5666 5666 5667 5668 5669
5727 5710 5685 5678 5677 5687 5711 5704 5717 5740 5744 5744 5742 5738 5735 5732 5730 5729 5726 5723 5720 5717 5713 5709 5705 5701 5698 5694 5690 5687 5683 5679 5675 5673 5670 5667 5665 5664 5664 5664 5664 5663 5663 5663 5663 5662 5663 5664 5664
5724 5711 5708 5690 5690 5685 5692 5707 5724 5736 5736 5736 5736 5735 5733 5733 5732 5731 5728 5726 5722 5719 5715 5712 5707 5703 5700 5696 5692 5689 5685 5681 5678 5675 5672 5669 5667 5666 5665 5664 5662 5662 5661 5660 5659 5658 5658 5658 5659
5733 5718 5698 5690 5679 5675 5690 5696 5699 5719 5726 5732 5733 5733 5734 5735 5734 5733 5730 5728 5725 5722 5719 5715 5711 5706 5702 5698 5694 5691 5687 5683 5680 5676 5673 5670 5668 5666 5664 5662 5661 5659 5658 5657 5655 5654 5653 5653 5654
5726 5720 5700 5683 5680 5672 5678 5693 5727 5728 5732 5733 5735 5737 5737 5736 5735 5734 5732 5730 5727 5724 5720 5715 5712 5708 5704 5700 5696 5692 5688 5685 5681 5677 5674 5671 5669 5666 5664 5661 5659 5657 5655 5653 5651 5649 5648 5648 5648
5729 5720 5702 5687 5686 5680 5674 5696 5741 5740 5741 5740 5739 5741 5741 5740 5738 5736 5733 5730 5726 5723 5720 5716 5713 5708 5705 5702 5697 5693 5689 5685 5681 5678 5675 5672 5669 5666 5663 5661 5658 5655 5653 5650 5647 5645 5644 5642 5641